ALESUND / VIGRA current weather conditions

sailwx.info

Wind from 080 at 10 knots

Air temperature -2.0° C
Visibility: greater than 5.4 NM
Dewpoint -5.0° C

Last reported at 2016-Feb-13 00:20 UTC.
Time now 2016-Feb-13 02:32 UTC

Location: N 62°34' E 006°07'.
View on Google Maps.

See reports from other nearby stations

  
Tides and Currents Weather Stations Pressure Air Temp Water Temp Dewpoint Dewpoint Depression Visibility Wind Speed Wind Dir Waves Ship Positions
date/time (UTC)wind fromknots sea level pressurealtimeterstation pressurevisibilityair tempwater tempwave heightnotes
2016-Feb-13 01:20 070 10 5.4-1.0
2016-Feb-13 00:50 090 10 5.4-1.0
2016-Feb-13 00:20 080 10 5.4-2.0
2016-Feb-12 23:50 080 9 5.4-3.0
2016-Feb-12 23:20 040 8 5.4-3.0
2016-Feb-12 22:50 5.4-2.0
2016-Feb-12 22:20 330 3 3.2-1.0 Light snow.
2016-Feb-12 21:50 340 3 3.2-2.0 Light snow showers.
2016-Feb-12 21:20 020 5 3.2-2.0 Light snow showers.
2016-Feb-12 20:20 070 5 5.4-2.0
2016-Feb-12 19:50 070 9 5.4-2.0
2016-Feb-12 19:20 050 12 3.2-1.0 Light snow showers.
2016-Feb-12 18:50 050 12 5.4-0.0 Showers in the vicinity.
2016-Feb-12 18:20 060 12 5.4-0.0
2016-Feb-12 17:50 080 10 5.4-1.0
2016-Feb-12 17:20 040 9 5.4-0.0 Showers in the vicinity.
2016-Feb-12 16:50 040 10 5.4-0.0 Light snow showers.
2016-Feb-12 16:20 030 11 5.4-0.0 Showers in the vicinity.
2016-Feb-12 15:50 040 6 5.4-1.0
2016-Feb-12 15:20 050 7 5.4-1.0
2016-Feb-12 14:50 040 12 2.2 1.0 Light snow showers.
2016-Feb-12 14:20 030 8 5.4 1.0 Showers in the vicinity.
2016-Feb-12 13:50 030 5 5.4 1.0 Showers in the vicinity.
2016-Feb-12 13:20 040 5 5.4 1.0 Showers in the vicinity.
2016-Feb-12 12:50 060 6 5.4 2.0 Light snow.
2016-Feb-12 12:20 090 5 5.4-0.0 Showers in the vicinity.
2016-Feb-12 11:20 5.4 1.0 Showers in the vicinity.
2016-Feb-12 10:50 5.4-0.0
2016-Feb-12 10:20 050 5 2.2-0.0 Light snow showers.
2016-Feb-12 09:50 050 5 5.4-0.0
2016-Feb-12 09:20 030 8 3.8-0.0 Light snow.
2016-Feb-12 08:50 050 8 5.4-0.0 Light snow.
2016-Feb-12 08:20 060 8 5.4-1.0 Light freezing rain.
2016-Feb-12 07:50 040 6 5.4-3.0 Light freezing drizzle.
2016-Feb-12 07:20 330 3 5.4-3.0 Showers in the vicinity.
2016-Feb-12 06:20 050 5 5.4-1.0 Showers in the vicinity.
2016-Feb-12 05:50 040 9 1.3-0.0 Light snow.
2016-Feb-12 05:20 030 6 3.2-1.0 Light snow.
2016-Feb-12 04:50 060 5 5.4-1.0
2016-Feb-12 04:20 070 7 5.4-1.0 Light snow.
2016-Feb-12 03:50 070 6 5.4-2.0
2016-Feb-12 03:20 040 7 5.4-1.0
2016-Feb-12 02:50 040 8 5.4-0.0
2016-Feb-12 02:20 050 8 5.4-2.0
2016-Feb-12 01:50 040 7 5.4-2.0
2016-Feb-12 01:20 050 6 5.4-2.0
2016-Feb-12 00:50 040 8 5.4-1.0
2016-Feb-12 00:20 040 6 5.4-2.0
2016-Feb-11 23:50 010 5 5.4-2.0
2016-Feb-11 23:20 350 4 5.4-1.0
2016-Feb-11 22:50 040 4 5.4-2.0
2016-Feb-11 22:20 060 7 5.4-1.0
2016-Feb-11 21:50 080 11 5.4-0.0
2016-Feb-11 21:20 070 7 5.4-2.0
2016-Feb-11 20:50 070 5 -2.0
2016-Feb-11 20:20 070 5 5.4-1.0
2016-Feb-11 19:50 050 7 5.4-1.0
2016-Feb-11 19:20 050 5 5.4-2.0
2016-Feb-11 18:50 040 6 5.4-1.0
2016-Feb-11 18:20 030 6 -1.0
2016-Feb-11 17:50 020 4 -1.0
2016-Feb-11 17:20 030 5 5.4-2.0
2016-Feb-11 16:50 040 6 5.4-1.0
2016-Feb-11 16:20 070 6 5.4-1.0
2016-Feb-11 15:50 060 6 5.4-0.0
2016-Feb-11 15:20 050 6 5.4-0.0
2016-Feb-11 14:50 050 3 5.4 1.0
2016-Feb-11 14:20 070 7 5.4 1.0
2016-Feb-11 13:50 050 6 5.4 2.0
2016-Feb-11 13:20 060 6 5.4 1.0
2016-Feb-11 12:50 060 12 5.4-0.0 Light snow showers.
2016-Feb-11 12:20 060 7 5.4 2.0 Showers in the vicinity.
2016-Feb-11 11:50 070 10 5.4 1.0 Showers in the vicinity.
2016-Feb-11 11:20 080 18 5.4 1.0
2016-Feb-11 10:50 070 10 5.4 2.0
2016-Feb-11 10:20 080 13 5.4 2.0
2016-Feb-11 09:50 080 13 5.4 2.0
2016-Feb-11 08:50 040 16 5.4 1.0 Snow showers.
2016-Feb-11 08:20 070 15 5.4 1.0
2016-Feb-11 07:50 070 15 5.4 1.0 Light rain.
2016-Feb-11 07:20 070 20 5.4 1.0 Showers in the vicinity.
2016-Feb-11 06:50 070 14 5.4 1.0 Showers in the vicinity.
2016-Feb-11 06:20 070 20 5.4 2.0
2016-Feb-11 05:50 060 20 5.4 2.0
2016-Feb-11 05:20 060 24 5.4 2.0
2016-Feb-11 04:50 040 24 5.4 2.0
2016-Feb-11 04:20 040 18 5.4 2.0
2016-Feb-11 03:50 060 18 5.4 2.0
2016-Feb-11 03:20 060 18 gusting 27 5.4 2.0
2016-Feb-11 02:50 060 20 5.4 2.0
2016-Feb-11 02:20 050 20 5.4 2.0